Time,TemperatureF,DewpointF,PressureIn,WindDirection,WindDirectionDegrees,WindSpeedMPH,WindSpeedGustMPH,Humidity,HourlyPrecipIn,Conditions,Clouds,dailyrainin,SoftwareType,DateUTC
2013-09-30 00:00:00,55.8,46.5,29.82,SSE,158,1.8,5.5,71,0.00,,SKC,0.00,VWS V14.01,2013-09-30 05:00:00,
2013-09-30 00:20:00,55.2,46.4,29.79,ESE,112,1.0,5.9,72,0.00,,SKC,0.00,VWS V14.01,2013-09-30 05:20:00,
2013-09-30 00:40:00,55.0,46.2,29.79,East,90,0.0,5.5,72,0.00,,SKC,0.00,VWS V14.01,2013-09-30 05:40:00,
2013-09-30 01:00:00,54.9,46.0,29.79,NNE,22,1.3,5.1,72,0.00,,SKC,0.00,VWS V14.01,2013-09-30 06:00:00,
2013-09-30 01:20:00,54.9,46.0,29.79,SSE,158,2.3,7.4,72,0.00,,SKC,0.00,VWS V14.01,2013-09-30 06:20:00,
2013-09-30 01:40:00,55.8,46.5,29.79,ESE,112,0.0,8.6,71,0.00,,SKC,0.00,VWS V14.01,2013-09-30 06:40:00,
2013-09-30 02:00:00,55.6,46.3,29.79,SSE,158,1.8,9.8,71,0.00,,SKC,0.00,VWS V14.01,2013-09-30 07:00:00,
2013-09-30 02:19:00,54.5,45.7,29.76,NE,45,1.5,5.9,72,0.00,,SKC,0.00,VWS V14.01,2013-09-30 07:19:00,
2013-09-30 03:00:00,56.1,46.1,29.76,SSW,202,1.8,8.6,69,0.00,,SKC,0.00,VWS V14.01,2013-09-30 08:00:00,
2013-09-30 03:19:00,57.0,46.2,29.76,SSW,202,2.3,14.1,67,0.00,,SKC,0.00,VWS V14.01,2013-09-30 08:19:00,
2013-09-30 03:40:00,57.4,45.7,29.76,SSW,202,6.7,12.5,65,0.00,,SKC,0.00,VWS V14.01,2013-09-30 08:40:00,
2013-09-30 04:00:00,57.6,45.9,29.76,South,180,1.3,10.6,65,0.00,,SKC,0.00,VWS V14.01,2013-09-30 09:00:00,
2013-09-30 04:19:00,57.6,45.9,29.74,SSE,158,3.6,12.5,65,0.00,,SKC,0.00,VWS V14.01,2013-09-30 09:19:00,
2013-09-30 04:39:00,56.1,45.3,29.74,ENE,68,0.0,5.9,67,0.00,,SKC,0.00,VWS V14.01,2013-09-30 09:39:00,
2013-09-30 05:00:00,55.6,46.0,29.74,WSW,248,3.1,4.7,70,0.00,,SKC,0.00,VWS V14.01,2013-09-30 10:00:00,
2013-09-30 05:20:00,55.6,46.3,29.74,WNW,292,0.0,5.1,71,0.00,,SKC,0.00,VWS V14.01,2013-09-30 10:20:00,
2013-09-30 05:39:00,55.4,46.2,29.74,ENE,68,2.3,6.7,71,0.00,,SKC,0.00,VWS V14.01,2013-09-30 10:39:00,
2013-09-30 06:00:00,54.9,46.0,29.71,WSW,248,3.1,7.4,72,0.00,,SKC,0.00,VWS V14.01,2013-09-30 11:00:00,
2013-09-30 06:20:00,54.5,45.7,29.71,SW,225,2.8,8.6,72,0.00,,SKC,0.00,VWS V14.01,2013-09-30 11:20:00,
2013-09-30 06:40:00,54.0,45.5,29.71,SE,135,1.0,6.7,73,0.00,,SKC,0.00,VWS V14.01,2013-09-30 11:40:00,
2013-09-30 07:00:00,53.4,45.7,29.71,SSE,158,1.3,8.6,75,0.00,,SKC,0.00,VWS V14.01,2013-09-30 12:00:00,
2013-09-30 07:20:00,53.1,45.7,29.71,WNW,292,3.6,7.0,76,0.00,,SKC,0.00,VWS V14.01,2013-09-30 12:20:00,
2013-09-30 07:40:00,52.9,45.9,29.71,WNW,292,3.3,6.3,77,0.00,,SKC,0.00,VWS V14.01,2013-09-30 12:40:00,
2013-09-30 08:00:00,53.1,46.4,29.71,West,270,3.3,8.2,78,0.00,,SKC,0.00,VWS V14.01,2013-09-30 13:00:00,
2013-09-30 08:20:00,53.4,47.1,29.71,West,270,7.2,11.0,79,0.00,,SKC,0.00,VWS V14.01,2013-09-30 13:20:00,
2013-09-30 08:40:00,54.5,47.8,29.68,SSE,158,2.3,13.3,78,0.00,,SKC,0.00,VWS V14.01,2013-09-30 13:40:00,
2013-09-30 09:00:00,56.3,48.5,29.68,ENE,68,1.3,9.8,75,0.00,,SKC,0.00,VWS V14.01,2013-09-30 14:00:00,
2013-09-30 09:19:00,57.6,48.6,29.68,SSW,202,8.5,15.3,72,0.00,,SKC,0.00,VWS V14.01,2013-09-30 14:19:00,
2013-09-30 09:40:00,59.7,49.9,29.68,ESE,112,3.3,12.9,70,0.00,,SKC,0.00,VWS V14.01,2013-09-30 14:40:00,
2013-09-30 10:00:00,62.2,50.3,29.68,ESE,112,1.8,17.2,65,0.00,,SKC,0.00,VWS V14.01,2013-09-30 15:00:00,
2013-09-30 10:19:00,63.3,50.1,29.68,SSE,158,4.6,15.3,62,0.00,,SKC,0.00,VWS V14.01,2013-09-30 15:19:00,
2013-09-30 10:40:00,63.5,48.5,29.65,WSW,248,4.9,16.4,58,0.00,,SKC,0.00,VWS V14.01,2013-09-30 15:40:00,
2013-09-30 10:59:00,64.4,48.8,29.68,NW,315,3.6,13.3,57,0.00,,SKC,0.00,VWS V14.01,2013-09-30 15:59:00,
2013-09-30 11:20:00,64.4,48.4,29.68,SSE,158,8.7,18.4,56,0.00,,SKC,0.00,VWS V14.01,2013-09-30 16:20:00,
2013-09-30 11:40:00,65.1,49.0,29.65,NW,315,2.6,20.8,56,0.00,,SKC,0.00,VWS V14.01,2013-09-30 16:40:00,
2013-09-30 12:00:00,66.6,50.9,29.68,SSW,202,2.8,18.8,57,0.00,,SKC,0.00,VWS V14.01,2013-09-30 17:00:00,
2013-09-30 12:20:00,66.7,48.6,29.65,SSW,202,4.9,27.0,52,0.00,,SKC,0.00,VWS V14.01,2013-09-30 17:20:00,
2013-09-30 12:39:00,68.0,50.2,29.65,SW,225,2.3,19.2,53,0.00,,SKC,0.00,VWS V14.01,2013-09-30 17:39:00,
2013-09-30 13:00:00,69.6,50.7,29.65,West,270,4.1,22.7,51,0.00,,SKC,0.00,VWS V14.01,2013-09-30 18:00:00,
2013-09-30 13:20:00,70.0,48.8,29.65,SSW,202,4.6,23.1,47,0.00,,SKC,0.00,VWS V14.01,2013-09-30 18:20:00,
2013-09-30 13:39:00,70.7,50.1,29.65,SSE,158,4.9,30.2,48,0.00,,SKC,0.00,VWS V14.01,2013-09-30 18:39:00,
2013-09-30 14:00:00,71.2,50.0,29.65,SSW,202,6.9,17.6,47,0.00,,SKC,0.00,VWS V14.01,2013-09-30 19:00:00,
2013-09-30 14:20:00,71.2,49.4,29.65,South,180,3.9,23.1,46,0.00,,SKC,0.00,VWS V14.01,2013-09-30 19:20:00,
2013-09-30 14:40:00,71.2,49.4,29.65,South,180,5.4,23.5,46,0.00,,SKC,0.00,VWS V14.01,2013-09-30 19:40:00,
2013-09-30 14:59:00,71.2,49.4,29.65,SE,135,7.2,18.8,46,0.00,,SKC,0.00,VWS V14.01,2013-09-30 19:59:00,
2013-09-30 15:20:00,71.4,50.2,29.65,SSE,158,3.9,19.2,47,0.00,,SKC,0.00,VWS V14.01,2013-09-30 20:20:00,
2013-09-30 15:39:00,71.1,51.0,29.65,SSE,158,1.3,16.8,49,0.00,,SKC,0.00,VWS V14.01,2013-09-30 20:39:00,
2013-09-30 15:59:00,71.2,50.6,29.65,WSW,248,4.9,20.8,48,0.00,,SKC,0.00,VWS V14.01,2013-09-30 20:59:00,
2013-09-30 16:20:00,70.9,49.7,29.65,WSW,248,11.3,22.7,47,0.00,,SKC,0.00,VWS V14.01,2013-09-30 21:20:00,
2013-09-30 16:40:00,70.5,49.3,29.65,ESE,112,8.7,18.8,47,0.00,,SKC,0.00,VWS V14.01,2013-09-30 21:40:00,
2013-09-30 17:00:00,70.2,50.1,29.65,WSW,248,4.9,17.6,49,0.00,,SKC,0.00,VWS V14.01,2013-09-30 22:00:00,
2013-09-30 17:19:00,69.4,50.0,29.65,South,180,1.5,13.3,50,0.00,,SKC,0.00,VWS V14.01,2013-09-30 22:19:00,
2013-09-30 17:40:00,68.7,50.4,29.65,South,180,1.5,10.2,52,0.00,,SKC,0.00,VWS V14.01,2013-09-30 22:40:00,
2013-09-30 18:00:00,67.8,50.6,29.65,SE,135,3.3,11.0,54,0.00,,SKC,0.00,VWS V14.01,2013-09-30 23:00:00,
2013-09-30 18:19:00,67.1,50.4,29.65,SSW,202,2.3,9.4,55,0.00,,SKC,0.00,VWS V14.01,2013-09-30 23:19:00,
2013-09-30 18:40:00,65.8,50.2,29.65,NNW,338,0.0,4.7,57,0.00,,SKC,0.00,VWS V14.01,2013-09-30 23:40:00,
2013-09-30 19:00:00,64.8,49.7,29.65,NE,45,0.0,3.5,58,0.00,,SKC,0.00,VWS V14.01,2013-10-01 00:00:00,
2013-09-30 19:20:00,63.1,49.9,29.65,NNE,22,0.0,5.1,62,0.00,,SKC,0.00,VWS V14.01,2013-10-01 00:20:00,
2013-09-30 19:40:00,62.4,50.1,29.65,NNE,22,1.8,6.3,64,0.00,,SKC,0.00,VWS V14.01,2013-10-01 00:40:00,
2013-09-30 19:59:00,62.6,49.8,29.65,South,180,0.0,7.0,63,0.00,,SKC,0.00,VWS V14.01,2013-10-01 00:59:00,
2013-09-30 20:19:00,62.1,49.3,29.68,East,90,2.6,7.0,63,0.00,,SKC,0.00,VWS V14.01,2013-10-01 01:19:00,
2013-09-30 20:39:00,62.2,49.1,29.68,NNW,338,2.8,9.4,62,0.00,,SKC,0.00,VWS V14.01,2013-10-01 01:39:00,
2013-09-30 21:00:00,62.1,48.5,29.68,ENE,68,1.0,8.6,61,0.00,,SKC,0.00,VWS V14.01,2013-10-01 02:00:00,
2013-09-30 21:20:00,62.1,48.0,29.68,SSE,158,0.0,8.6,60,0.00,,SKC,0.00,VWS V14.01,2013-10-01 02:20:00,
2013-09-30 21:40:00,61.7,47.7,29.68,WSW,248,1.8,10.2,60,0.00,,SKC,0.00,VWS V14.01,2013-10-01 02:40:00,
2013-09-30 21:59:00,61.2,47.6,29.68,SSW,202,1.8,7.4,61,0.00,,SKC,0.00,VWS V14.01,2013-10-01 02:59:00,
2013-09-30 22:20:00,60.6,47.5,29.68,SSE,158,1.0,8.2,62,0.00,,SKC,0.00,VWS V14.01,2013-10-01 03:20:00,
2013-09-30 22:40:00,60.1,47.9,29.68,SSW,202,1.0,5.5,64,0.00,,SKC,0.00,VWS V14.01,2013-10-01 03:40:00,
2013-09-30 22:59:00,59.7,48.0,29.65,South,180,2.8,7.4,65,0.00,,SKC,0.00,VWS V14.01,2013-10-01 03:59:00,
2013-09-30 23:19:00,59.7,48.4,29.65,SE,135,3.3,5.1,66,0.00,,SKC,0.00,VWS V14.01,2013-10-01 04:19:00,
2013-09-30 23:40:00,59.7,48.4,29.65,SSE,158,1.8,7.0,66,0.00,,SKC,0.00,VWS V14.01,2013-10-01 04:40:00,
2013-09-30 23:59:00,59.9,48.5,29.65,South,180,1.3,7.4,66,0.00,,SKC,0.00,VWS V14.01,2013-10-01 04:59:00,